TimeCST,TemperatureF,Dew PointF,Humidity,Sea Level PressureIn,VisibilityMPH,Wind Direction,Wind SpeedMPH,Gust SpeedMPH,PrecipitationIn,Events,Conditions,WindDirDegrees,DateUTC
12:15 AM,75.6,65.5,71,30.06,10.0,SSE,13.8,-,N/A,,Clear,160,2012-11-09 06:15:00
12:35 AM,75.7,65.5,70,30.06,10.0,SSE,12.7,19.6,N/A,,Clear,160,2012-11-09 06:35:00
12:55 AM,75.6,65.7,71,30.05,10.0,SSE,12.7,19.6,N/A,,Clear,160,2012-11-09 06:55:00
1:15 AM,75.6,65.5,71,30.05,10.0,South,12.7,19.6,N/A,,Clear,170,2012-11-09 07:15:00
1:35 AM,75.6,65.3,70,30.05,10.0,South,13.8,18.4,N/A,,Scattered Clouds,170,2012-11-09 07:35:00
1:55 AM,75.6,65.3,70,30.05,10.0,South,13.8,19.6,N/A,,Scattered Clouds,170,2012-11-09 07:55:00
2:15 AM,75.7,65.3,70,30.05,10.0,South,11.5,18.4,N/A,,Mostly Cloudy,170,2012-11-09 08:15:00
2:35 AM,75.6,65.8,72,30.04,10.0,SSE,13.8,18.4,N/A,,Scattered Clouds,160,2012-11-09 08:35:00
2:55 AM,75.4,65.5,71,30.04,10.0,South,8.1,-,N/A,,Mostly Cloudy,170,2012-11-09 08:55:00
3:15 AM,75.2,66.2,73,30.04,10.0,South,10.4,-,N/A,,Mostly Cloudy,170,2012-11-09 09:15:00
3:35 AM,75.2,66.4,74,30.04,10.0,South,11.5,16.1,N/A,,Scattered Clouds,170,2012-11-09 09:35:00
3:55 AM,75.0,66.6,75,30.03,10.0,South,8.1,-,N/A,,Mostly Cloudy,170,2012-11-09 09:55:00
4:15 AM,74.7,67.1,77,30.03,10.0,South,8.1,-,N/A,,Scattered Clouds,180,2012-11-09 10:15:00
4:35 AM,74.7,66.6,76,30.03,10.0,South,8.1,-,N/A,,Clear,170,2012-11-09 10:35:00
4:55 AM,74.5,66.2,75,30.03,10.0,South,10.4,16.1,N/A,,Clear,170,2012-11-09 10:55:00
5:15 AM,74.5,66.2,75,30.02,10.0,South,10.4,-,N/A,,Clear,170,2012-11-09 11:15:00
5:35 AM,74.7,66.6,76,30.02,10.0,SSE,12.7,-,N/A,,Clear,160,2012-11-09 11:35:00
6:15 AM,75.0,66.7,75,30.04,10.0,SSE,11.5,17.3,N/A,,Clear,160,2012-11-09 12:15:00
6:35 AM,75.0,66.7,75,30.04,10.0,SSE,13.8,18.4,N/A,,Clear,160,2012-11-09 12:35:00
6:55 AM,75.0,66.4,74,30.05,10.0,SSE,10.4,18.4,N/A,,Clear,160,2012-11-09 12:55:00
7:35 AM,76.3,67.1,73,30.05,10.0,SSE,12.7,18.4,N/A,,Clear,160,2012-11-09 13:35:00
7:55 AM,77.4,67.1,71,30.05,10.0,SSE,16.1,20.7,N/A,,Scattered Clouds,160,2012-11-09 13:55:00
8:15 AM,78.4,66.9,68,30.06,10.0,SSE,12.7,21.9,N/A,,Clear,160,2012-11-09 14:15:00
8:35 AM,79.5,66.9,65,30.06,10.0,SSE,19.6,25.3,N/A,,Clear,160,2012-11-09 14:35:00
8:55 AM,80.2,66.9,64,30.07,10.0,SSE,18.4,24.2,N/A,,Scattered Clouds,150,2012-11-09 14:55:00
9:15 AM,80.6,67.1,63,30.08,10.0,SSE,15.0,25.3,N/A,,Scattered Clouds,160,2012-11-09 15:15:00
9:35 AM,81.5,67.1,61,30.08,10.0,SSE,18.4,24.2,N/A,,Scattered Clouds,150,2012-11-09 15:35:00
9:55 AM,81.7,66.9,61,30.09,10.0,SSE,16.1,26.5,N/A,,Scattered Clouds,160,2012-11-09 15:55:00
10:15 AM,82.0,66.7,60,30.09,10.0,SSE,16.1,26.5,N/A,,Scattered Clouds,160,2012-11-09 16:15:00
10:35 AM,82.6,66.6,58,30.09,10.0,SSE,24.2,28.8,N/A,,Scattered Clouds,160,2012-11-09 16:35:00
10:55 AM,82.8,66.4,58,30.09,10.0,SSE,18.4,26.5,N/A,,Scattered Clouds,160,2012-11-09 16:55:00
11:15 AM,83.5,66.7,57,30.09,10.0,SSE,17.3,28.8,N/A,,Scattered Clouds,160,2012-11-09 17:15:00
11:35 AM,83.5,66.4,56,30.08,10.0,South,21.9,29.9,N/A,,Scattered Clouds,170,2012-11-09 17:35:00
11:55 AM,83.7,66.4,56,30.07,10.0,SSE,23.0,29.9,N/A,,Scattered Clouds,150,2012-11-09 17:55:00
12:15 PM,83.8,66.2,55,30.06,10.0,SSE,20.7,27.6,N/A,,Scattered Clouds,150,2012-11-09 18:15:00
12:35 PM,83.3,66.0,56,30.05,10.0,SSE,23.0,28.8,N/A,,Scattered Clouds,160,2012-11-09 18:35:00
12:55 PM,83.1,65.5,55,30.04,10.0,SSE,23.0,29.9,N/A,,Scattered Clouds,160,2012-11-09 18:55:00
1:15 PM,83.5,65.3,54,30.02,10.0,SSE,20.7,28.8,N/A,,Clear,150,2012-11-09 19:15:00
1:35 PM,83.5,65.3,54,30.02,10.0,SSE,21.9,28.8,N/A,,Clear,160,2012-11-09 19:35:00
1:55 PM,83.3,65.1,54,30.02,10.0,SSE,18.4,25.3,N/A,,Clear,160,2012-11-09 19:55:00
2:15 PM,83.1,65.5,55,30.01,10.0,SSE,18.4,26.5,N/A,,Clear,150,2012-11-09 20:15:00
2:35 PM,82.9,65.3,55,30.01,10.0,SSE,19.6,26.5,N/A,,Clear,160,2012-11-09 20:35:00
2:55 PM,82.6,64.9,55,30.00,10.0,SSE,18.4,25.3,N/A,,Clear,150,2012-11-09 20:55:00
3:15 PM,82.4,65.3,56,30.00,10.0,SSE,18.4,26.5,N/A,,Clear,160,2012-11-09 21:15:00
3:35 PM,82.0,65.1,56,30.00,10.0,SSE,15.0,26.5,N/A,,Clear,150,2012-11-09 21:35:00
3:55 PM,81.7,65.5,58,30.00,10.0,SSE,18.4,25.3,N/A,,Clear,160,2012-11-09 21:55:00
4:15 PM,81.1,65.3,58,30.00,10.0,SE,13.8,23.0,N/A,,Clear,140,2012-11-09 22:15:00
4:35 PM,80.6,65.5,60,29.99,10.0,SE,17.3,-,N/A,,Clear,140,2012-11-09 22:35:00
4:55 PM,79.7,66.0,63,29.99,10.0,SE,17.3,-,N/A,,Clear,140,2012-11-09 22:55:00
5:15 PM,78.6,66.2,66,29.99,10.0,SSE,12.7,-,N/A,,Clear,150,2012-11-09 23:15:00
5:35 PM,77.5,66.0,68,29.99,10.0,SSE,10.4,-,N/A,,Clear,150,2012-11-09 23:35:00
5:55 PM,76.6,66.2,70,30.00,10.0,SSE,11.5,-,N/A,,Clear,150,2012-11-09 23:55:00
6:15 PM,76.1,66.0,71,30.01,10.0,SE,10.4,-,N/A,,Clear,140,2012-11-10 00:15:00
6:35 PM,75.7,66.2,72,30.01,10.0,SSE,9.2,-,N/A,,Clear,150,2012-11-10 00:35:00
6:55 PM,75.4,66.0,73,30.01,10.0,SSE,9.2,-,N/A,,Clear,150,2012-11-10 00:55:00
7:15 PM,75.4,66.7,74,30.02,10.0,SSE,10.4,-,N/A,,Clear,150,2012-11-10 01:15:00
7:35 PM,75.4,66.9,75,30.02,10.0,SSE,9.2,-,N/A,,Clear,150,2012-11-10 01:35:00
7:55 PM,75.2,66.6,74,30.03,10.0,SE,10.4,-,N/A,,Clear,140,2012-11-10 01:55:00
8:15 PM,75.4,66.6,74,30.03,10.0,SE,11.5,-,N/A,,Clear,140,2012-11-10 02:15:00
8:35 PM,75.6,66.6,74,30.03,10.0,SE,11.5,-,N/A,,Scattered Clouds,140,2012-11-10 02:35:00
8:55 PM,75.7,66.0,72,30.03,10.0,SSE,12.7,18.4,N/A,,Scattered Clouds,150,2012-11-10 02:55:00
9:15 PM,75.6,65.5,71,30.04,10.0,SSE,13.8,19.6,N/A,,Clear,150,2012-11-10 03:15:00
9:35 PM,75.6,65.3,70,30.04,10.0,SSE,12.7,19.6,N/A,,Clear,150,2012-11-10 03:35:00
9:55 PM,75.4,64.8,69,30.04,10.0,SSE,11.5,-,N/A,,Clear,150,2012-11-10 03:55:00
10:15 PM,75.4,64.8,69,30.04,10.0,SSE,10.4,16.1,N/A,,Scattered Clouds,150,2012-11-10 04:15:00
10:35 PM,75.7,65.7,71,30.04,10.0,SSE,11.5,-,N/A,,Mostly Cloudy,150,2012-11-10 04:35:00
10:55 PM,75.6,65.1,70,30.04,10.0,SSE,10.4,-,N/A,,Scattered Clouds,160,2012-11-10 04:55:00
11:15 PM,75.4,63.9,67,30.04,10.0,SSE,13.8,-,N/A,,Clear,160,2012-11-10 05:15:00
11:35 PM,75.6,63.5,66,30.04,10.0,SSE,11.5,-,N/A,,Clear,150,2012-11-10 05:35:00
11:55 PM,75.4,64.2,68,30.03,10.0,SSE,11.5,-,N/A,,Scattered Clouds,150,2012-11-10 05:55:00